Home   Weather   Greater Sudbury   Past weeks

Flag for Canada Past Weather in Greater Sudbury, Ontario, Canada — Yesterday and Last 2 Weeks

34 °F


Feels Like: 25 °F
Forecast: 28 / 36 °F
Wind: 12 mph from East

Location: Sudbury

Current Time: Oct 27, 2016 at 2:56:15 PM

Latest Report: Oct 27, 2016 at 2:00 PM

Visibility: 20 mi

Pressure: 30.25 "Hg

Humidity: 56%

Dew Point: 19 °F

Location of Greater SudburyLocation

Past Weather in Greater Sudbury — Graph


Greater Sudbury Temperature Yesterday

Maximum temperature yesterday: 34 °F (at 3:00 PM)
Minimum temperature yesterday: 19 °F (at 7:00 AM)
Average temperature yesterday: 28 °F

High & Low Weather Summary for the Past Weeks

High70 °F (Oct 16, 4:00 PM)100% (Oct 15, 1:00 AM)30.58 "Hg (Oct 15, 1:00 AM)
Low19 °F (Oct 26, 7:00 AM)38% (Oct 16, 4:00 PM)29.33 "Hg (Oct 18, 11:00 AM)
Average43 °F78%30.04 "Hg
* Reported Oct 12 1:00 PM — Oct 27 1:00 PM, Greater Sudbury, Weather by CustomWeather, © 2016

Note: Actual official high and low records may vary slightly from our data, if they occured in-between our weather recording intervals... More about our weather records


Greater Sudbury Weather History for the Previous 24 Hours

Scroll right to see more
Time TempWeatherWind HumidityBarometerVisibility
1:00 PM
Thu, Oct 27
32 °FOvercast.15 mph60%30.27 "Hg20 mi
12:00 PM32 °FOvercast.13 mph60%30.28 "Hg20 mi
11:00 AM30 °FPartly sunny.14 mph69%30.30 "Hg20 mi
10:00 AM30 °FPartly sunny.13 mph64%30.32 "Hg20 mi
9:00 AM28 °FPartly sunny.10 mph69%30.34 "Hg20 mi
8:00 AM27 °FOvercast.13 mph74%30.33 "Hg20 mi
7:00 AM27 °FOvercast.12 mph74%30.33 "Hg15 mi
6:00 AM27 °FOvercast.13 mph69%30.35 "Hg15 mi
5:00 AM27 °FOvercast.12 mph69%30.36 "Hg15 mi
4:00 AM27 °FOvercast.10 mph69%30.38 "Hg15 mi
3:00 AM27 °FOvercast.10 mph69%30.40 "Hg15 mi
2:00 AM27 °FOvercast.10 mph69%30.43 "Hg15 mi
1:00 AM28 °FOvercast.12 mph64%30.45 "Hg15 mi
12:00 AM28 °FOvercast.10 mph64%30.46 "Hg15 mi
11:00 PM
Wed, Oct 26
28 °FHigh level clouds.10 mph64%30.48 "Hg15 mi
10:00 PM28 °FHigh level clouds.8 mph64%30.49 "Hg15 mi
9:00 PM28 °FHigh level clouds.9 mph69%30.50 "Hg15 mi
8:00 PM28 °FHigh level clouds.9 mph69%30.50 "Hg15 mi
7:00 PM30 °FHigh level clouds.9 mph64%30.50 "Hg15 mi
6:00 PM32 °FOvercast.8 mph55%30.48 "Hg15 mi
5:00 PM34 °FOvercast.8 mph51%30.50 "Hg20 mi
4:00 PM34 °FOvercast.8 mph51%30.50 "Hg20 mi
3:00 PM34 °FPartly sunny.7 mph56%30.52 "Hg20 mi
2:00 PM32 °FBroken clouds.10 mph60%30.53 "Hg20 mi
Weather by CustomWeather, © 2016

See weather overviewHow to use our weather pages